When you browse on this site, cookies collect data to enhance your experience and personalize the content and advertising you see.
Visit our Privacy Policy to learn more. By continuing to use the site, you agree to this use of cookies and data.
  • En España
  • Lista de países
  • Para 7 días
  • Temperatura del agua
  • El tiempo en el mapa
  • Informadores
  • user-avatar
    Iniciar sesión

    Tiempo cada hora Lambaréné

    Hoy, 28 Mayo, Jueves

    Tiempo Temperatura Precipitaciones Viento Presión Humedad
    00:00 +26°C° 1.6 mm 2 mps 754 mmHg 97%
    01:00 +26°C° 0 mm 2 mps 753 mmHg 98%
    02:00 +26°C° 2.2 mm 1 mps 753 mmHg 98%
    03:00 +26°C° 2.2 mm 1 mps 753 mmHg 98%
    04:00 +26°C° 2.2 mm 1 mps 752 mmHg 98%
    05:00 +26°C° 0.7 mm 1 mps 753 mmHg 97%
    06:00 +26°C° 0.7 mm 1 mps 753 mmHg 97%
    07:00 +26°C° 0.7 mm 1 mps 754 mmHg 97%
    08:00 +27°C° 0.1 mm 1 mps 754 mmHg 94%
    09:00 +27°C° 0.1 mm 1 mps 754 mmHg 90%
    10:00 +28°C° 0.1 mm 1 mps 755 mmHg 87%
    11:00 +29°C° 0.1 mm 1 mps 754 mmHg 81%
    12:00 +31°C° 0.1 mm 2 mps 753 mmHg 76%
    13:00 +32°C° 0.1 mm 2 mps 753 mmHg 70%
    14:00 +31°C° 0.6 mm 2 mps 752 mmHg 72%
    15:00 +31°C° 0.6 mm 2 mps 751 mmHg 75%
    16:00 +31°C° 0.6 mm 2 mps 751 mmHg 77%
    17:00 +30°C° 0.3 mm 2 mps 751 mmHg 82%
    18:00 +28°C° 0.3 mm 2 mps 752 mmHg 86%
    19:00 +27°C° 0.3 mm 2 mps 753 mmHg 91%
    20:00 +27°C° 6.1 mm 2 mps 753 mmHg 93%
    21:00 +26°C° 6.1 mm 2 mps 754 mmHg 95%
    22:00 +26°C° 6.1 mm 2 mps 754 mmHg 98%
    23:00 +26°C° 2.1 mm 2 mps 754 mmHg 98%

    Mañana, 29 Mayo, Viernes

    Tiempo Temperatura Precipitaciones Viento Presión Humedad
    00:00 +25°C° 2.1 mm 2 mps 754 mmHg 98%
    01:00 +25°C° 2.1 mm 2 mps 754 mmHg 98%
    02:00 +25°C° 0.1 mm 2 mps 754 mmHg 98%
    03:00 +25°C° 0.1 mm 1 mps 753 mmHg 97%
    04:00 +25°C° 0.1 mm 1 mps 753 mmHg 97%
    05:00 +25°C° 0 mm 1 mps 753 mmHg 97%
    06:00 +25°C° 0 mm 1 mps 754 mmHg 97%
    07:00 +25°C° 0 mm 1 mps 754 mmHg 96%
    08:00 +27°C° 0 mm 1 mps 754 mmHg 90%
    09:00 +28°C° 0 mm 1 mps 754 mmHg 83%
    10:00 +30°C° 0 mm 1 mps 755 mmHg 77%
    11:00 +31°C° 0 mm 1 mps 754 mmHg 70%
    12:00 +33°C° 0 mm 1 mps 753 mmHg 64%
    13:00 +34°C° 0 mm 1 mps 752 mmHg 58%
    14:00 +34°C° 0.2 mm 1 mps 752 mmHg 59%
    15:00 +33°C° 0.2 mm 1 mps 751 mmHg 60%
    16:00 +33°C° 0.2 mm 1 mps 751 mmHg 62%
    17:00 +31°C° 0.4 mm 1 mps 751 mmHg 69%
    18:00 +30°C° 0.4 mm 1 mps 752 mmHg 76%
    19:00 +28°C° 0.4 mm 1 mps 752 mmHg 84%
    20:00 +27°C° 1.4 mm 1 mps 752 mmHg 88%
    21:00 +27°C° 1.4 mm 2 mps 753 mmHg 92%
    22:00 +26°C° 1.4 mm 3 mps 753 mmHg 97%
    23:00 +26°C° 0.2 mm 2 mps 753 mmHg 97%

    Pasado mañana, 30 Mayo, Sábado

    Tiempo Temperatura Precipitaciones Viento Presión Humedad
    00:00 +26°C° 0.2 mm 2 mps 753 mmHg 97%
    01:00 +26°C° 0.2 mm 1 mps 753 mmHg 97%
    02:00 +25°C° 0.2 mm 1 mps 753 mmHg 96%
    03:00 +25°C° 0.2 mm 1 mps 753 mmHg 96%
    04:00 +25°C° 0.2 mm 1 mps 753 mmHg 96%
    05:00 +25°C° 0 mm 1 mps 753 mmHg 96%
    06:00 +25°C° 0 mm 1 mps 753 mmHg 95%
    07:00 +26°C° 0 mm 1 mps 754 mmHg 95%
    08:00 +27°C° 0 mm 1 mps 754 mmHg 89%
    09:00 +28°C° 0 mm 1 mps 754 mmHg 83%
    10:00 +30°C° 0 mm 1 mps 754 mmHg 78%
    11:00 +30°C° 0 mm 1 mps 754 mmHg 75%
    12:00 +31°C° 0 mm 1 mps 753 mmHg 72%
    13:00 +32°C° 0 mm 1 mps 753 mmHg 69%
    14:00 +32°C° 0 mm 1 mps 752 mmHg 69%
    15:00 +32°C° 0 mm 1 mps 752 mmHg 69%
    16:00 +32°C° 0 mm 1 mps 751 mmHg 69%
    17:00 +30°C° 1.2 mm 2 mps 752 mmHg 76%
    18:00 +29°C° 1.2 mm 2 mps 752 mmHg 84%
    19:00 +27°C° 1.2 mm 2 mps 753 mmHg 91%
    20:00 +27°C° 0.7 mm 2 mps 753 mmHg 93%
    21:00 +26°C° 0.7 mm 2 mps 753 mmHg 94%
    22:00 +26°C° 0.7 mm 2 mps 754 mmHg 96%
    23:00 +26°C° 0.6 mm 2 mps 754 mmHg 96%

    31 Mayo, Domingo

    Tiempo Temperatura Precipitaciones Viento Presión Humedad
    00:00 +25°C° 0.6 mm 2 mps 753 mmHg 96%
    01:00 +25°C° 0.6 mm 2 mps 753 mmHg 96%
    02:00 +25°C° 0.3 mm 1 mps 753 mmHg 96%
    03:00 +25°C° 0.3 mm 1 mps 753 mmHg 97%
    04:00 +25°C° 0.3 mm 1 mps 753 mmHg 97%
    05:00 +25°C° 0.6 mm 1 mps 753 mmHg 97%
    06:00 +23°C° 0.6 mm 0 mps 754 mmHg 96%
    07:00 +23°C° 0.6 mm 0 mps 754 mmHg 96%
    08:00 +24°C° 0.1 mm 0 mps 754 mmHg 90%
    09:00 +26°C° 0.1 mm 0 mps 754 mmHg 84%
    10:00 +27°C° 0.1 mm 0 mps 755 mmHg 78%
    11:00 +30°C° 0.1 mm 1 mps 754 mmHg 73%
    12:00 +31°C° 0.1 mm 1 mps 754 mmHg 69%
    13:00 +32°C° 0.1 mm 1 mps 753 mmHg 64%
    14:00 +32°C° 0.1 mm 1 mps 753 mmHg 64%
    15:00 +32°C° 0.1 mm 1 mps 752 mmHg 64%
    16:00 +32°C° 0.1 mm 1 mps 752 mmHg 64%
    17:00 +30°C° 3 mm 1 mps 752 mmHg 75%
    18:00 +28°C° 3 mm 1 mps 753 mmHg 85%
    19:00 +26°C° 3 mm 1 mps 753 mmHg 96%
    20:00 +26°C° 3.4 mm 2 mps 754 mmHg 96%
    21:00 +26°C° 3.4 mm 2 mps 754 mmHg 97%
    22:00 +26°C° 3.4 mm 2 mps 755 mmHg 98%
    23:00 +26°C° 0.2 mm 2 mps 755 mmHg 97%

    1 Junio, Lunes

    Tiempo Temperatura Precipitaciones Viento Presión Humedad
    00:00 +25°C° 0.2 mm 2 mps 755 mmHg 97%
    01:00 +25°C° 0.2 mm 2 mps 754 mmHg 97%
    02:00 +25°C° 0 mm 1 mps 754 mmHg 97%
    03:00 +25°C° 0 mm 1 mps 754 mmHg 97%
    04:00 +25°C° 0 mm 1 mps 754 mmHg 97%
    05:00 +25°C° 0 mm 1 mps 754 mmHg 96%
    06:00 +25°C° 0 mm 1 mps 754 mmHg 96%
    07:00 +23°C° 0 mm 0 mps 755 mmHg 96%
    08:00 +27°C° 0 mm 1 mps 755 mmHg 90%
    09:00 +28°C° 0 mm 1 mps 755 mmHg 84%
    10:00 +29°C° 0 mm 1 mps 755 mmHg 78%
    11:00 +30°C° 0.1 mm 1 mps 755 mmHg 74%
    12:00 +31°C° 0.1 mm 1 mps 754 mmHg 70%
    13:00 +32°C° 0.1 mm 1 mps 753 mmHg 65%
    14:00 +32°C° 0 mm 1 mps 753 mmHg 67%
    15:00 +31°C° 0 mm 1 mps 752 mmHg 69%
    16:00 +31°C° 0 mm 2 mps 752 mmHg 70%
    17:00 +30°C° 0.1 mm 1 mps 752 mmHg 75%
    18:00 +29°C° 0.1 mm 1 mps 753 mmHg 81%
    19:00 +28°C° 0.1 mm 1 mps 753 mmHg 86%
    20:00 +27°C° 0.9 mm 1 mps 754 mmHg 89%
    21:00 +27°C° 0.9 mm 2 mps 754 mmHg 92%
    22:00 +26°C° 0.9 mm 2 mps 754 mmHg 95%
    23:00 +26°C° 1 mm 2 mps 754 mmHg 95%

    2 Junio, Martes

    Tiempo Temperatura Precipitaciones Viento Presión Humedad
    00:00 +26°C° 1 mm 2 mps 754 mmHg 96%
    01:00 +25°C° 1 mm 2 mps 754 mmHg 97%
    02:00 +25°C° 0 mm 2 mps 754 mmHg 97%
    03:00 +25°C° 0 mm 1 mps 753 mmHg 97%
    04:00 +23°C° 0 mm 0 mps 753 mmHg 97%
    05:00 +23°C° 0 mm 0 mps 753 mmHg 97%
    06:00 +23°C° 0 mm 0 mps 754 mmHg 97%
    07:00 +23°C° 0 mm 0 mps 754 mmHg 96%
    08:00 +24°C° 0 mm 0 mps 754 mmHg 93%
    09:00 +25°C° 0 mm 0 mps 755 mmHg 90%
    10:00 +26°C° 0 mm 0 mps 755 mmHg 86%
    11:00 +29°C° 0 mm 1 mps 755 mmHg 79%
    12:00 +31°C° 0 mm 1 mps 754 mmHg 72%
    13:00 +32°C° 0 mm 1 mps 753 mmHg 65%
    14:00 +32°C° 0 mm 1 mps 753 mmHg 66%
    15:00 +32°C° 0 mm 1 mps 752 mmHg 67%
    16:00 +31°C° 0 mm 1 mps 752 mmHg 68%
    17:00 +30°C° 0.1 mm 1 mps 752 mmHg 74%
    18:00 +29°C° 0.1 mm 1 mps 752 mmHg 80%
    19:00 +28°C° 0.1 mm 1 mps 753 mmHg 86%
    20:00 +27°C° 0.3 mm 1 mps 753 mmHg 88%
    21:00 +27°C° 0.3 mm 1 mps 754 mmHg 91%
    22:00 +26°C° 0.3 mm 1 mps 754 mmHg 94%
    23:00 +26°C° 0.2 mm 1 mps 754 mmHg 94%
    Mostrar más